Location: Pitton
(51.0667°N, 1.7000°W)
Time: 09:11:18
(UTC+00:00)

SL-08 RB Rocket - Pass Details

Date: 17 September 2019
Orbit: 646 x 685 km, 97.9° (Epoch: 19 October)

Event Time Altitude Azimuth Distance (km) Brightness Sun altitude
Exits shadow 20:03:30 23° 155° (SSE) 1,462 5.0 -16.9°
Maximum altitude 20:06:27 75° 73° (ENE) 716 3.7 -17.3°
Drops below altitude 10° 20:11:08 10° 349° (N) 2,144 6.8 -18.0°
Sets 20:13:23 0° 348° (NNW) 3,063 7.7 -18.3°
